Regional Weather Roundup
Issued by NWS Charleston, WV

Home | Current Version | Previous Version | Graphics & Text | Print | Product List | Glossary On
Versions: 1 2 3 4 5 6 7 8 9 10 11 12 13 14 15 16 17 18 19 20 21 22 23 24 25 26 27 28 29 30 31 32 33 34 35 36 37 38 39 40 41 42 43 44 45 46 47 48 49 50
000
ASUS41 KRLX 211110
RWRRLX
West Virginia Regional Weather Roundup
National Weather Service Charleston WV
600 AM EST FRI NOV 21 2014

Note: "fair" indicates few or no clouds below 12,000 feet with no
significant weather and/or obstructions to visibility.

WVZ003-211200-
Northern Panhandle of West Virginia

CITY           SKY/WX    TMP DP  RH WIND       PRES   REMARKS
WHEELING       CLEAR     18  11  74 W7        30.31R WCI   9
$$

WVZ009-211200-
Northwest West Virginia

CITY           SKY/WX    TMP DP  RH WIND       PRES   REMARKS
PARKERSBURG    CLEAR     21  12  68 W8        30.40R
$$

WVZ006-211200-
Western West Virginia

CITY           SKY/WX    TMP DP  RH WIND       PRES   REMARKS
HUNTINGTON     CLEAR     21  16  81 SW3       30.40R
$$

WVZ015-211200-
West Central West Virginia

CITY           SKY/WX    TMP DP  RH WIND       PRES   REMARKS
CHARLESTON     CLEAR     23  16  74 W6        30.38R
$$

WVZ022-031-211200-
North Central West Virginia

CITY           SKY/WX    TMP DP  RH WIND       PRES   REMARKS
CLARKSBURG     CLEAR     22  13  68 W6        30.32R
MORGANTOWN     CLEAR     23  11  60 W5        30.32R
$$

WVZ025-035-042-045-211200-
Southern West Virginia

CITY           SKY/WX    TMP DP  RH WIND       PRES   REMARKS
BECKLEY        CLEAR     20  11  68 NW10      30.27R WCI   9
LOGAN            N/A     23  16  74 W6        30.35R
BLUEFIELD      MOCLDY    22  13  68 NW14G22   30.25R WCI   9
LEWISBURG      CLEAR     23  12  61 NW7       30.26R
$$

WVZ047-211200-
Northern Mountains of West Virginia

CITY           SKY/WX    TMP DP  RH WIND       PRES   REMARKS
ELKINS         CLOUDY    22  12  65 W9G18     30.27R
$$

WVZ052-211200-
Eastern Panhandle of West Virginia

CITY           SKY/WX    TMP DP  RH WIND       PRES   REMARKS
MARTINSBURG    PTCLDY    28   5  37 NW16G24   30.29R
PETERSBURG     CLOUDY    28   7  41 CALM      30.29R
$$


USA.gov is the U.S. government's official web portal to all federal, state and local government web resources and services.